Radiation Dose at Monitoring Post of Fukushima Daini Nuclear Power Station
Date,Time,MP-1(microSv/h),MP-2(microSv/h),MP-3(microSv/h),MP-4(microSv/h),MP-5(microSv/h),MP-6(microSv/h),MP-7(microSv/h),Wind Direction,Wind Velocity(m/s),Rain
2018/03/05,00:00,0.329,0.204,0.334,0.320,0.303,0.168,0.102,-,CALM,No
2018/03/05,00:10,0.330,0.206,0.334,0.319,0.305,0.169,0.101,-,CALM,No
2018/03/05,00:20,0.330,0.205,0.336,0.318,0.303,0.169,0.101,-,CALM,No
2018/03/05,00:30,0.329,0.205,0.335,0.320,0.303,0.169,0.100,southwest,2.3,No
2018/03/05,00:40,0.329,0.205,0.335,0.320,0.305,0.168,0.100,southwest,2.6,No
2018/03/05,00:50,0.332,0.205,0.335,0.320,0.304,0.169,0.101,southwest,1.4,No
2018/03/05,01:00,0.331,0.205,0.334,0.319,0.303,0.169,0.102,southwest,1.3,No
2018/03/05,01:10,0.331,0.205,0.336,0.319,0.305,0.170,0.101,southwest,1.1,No
2018/03/05,01:20,0.332,0.205,0.336,0.319,0.303,0.169,0.102,south,0.6,No
2018/03/05,01:30,0.331,0.206,0.335,0.320,0.303,0.169,0.101,south-southwest,1.9,No
2018/03/05,01:40,0.330,0.205,0.335,0.318,0.306,0.168,0.101,southwest,1.8,No
2018/03/05,01:50,0.331,0.206,0.336,0.318,0.303,0.169,0.101,southwest,1.6,No
2018/03/05,02:00,0.330,0.205,0.335,0.320,0.303,0.168,0.102,southwest,0.8,No
2018/03/05,02:10,0.329,0.205,0.334,0.321,0.304,0.168,0.100,-,CALM,No
2018/03/05,02:20,0.331,0.206,0.336,0.319,0.304,0.168,0.101,-,CALM,No
2018/03/05,02:30,0.332,0.205,0.336,0.318,0.303,0.168,0.101,east-southeast,0.6,No
2018/03/05,02:40,0.330,0.205,0.333,0.319,0.303,0.167,0.101,northeast,1.0,No
2018/03/05,02:50,0.332,0.206,0.336,0.319,0.304,0.168,0.102,east,0.7,No
2018/03/05,03:00,0.333,0.207,0.335,0.319,0.304,0.169,0.102,southeast,1.2,No
2018/03/05,03:10,0.332,0.206,0.335,0.321,0.304,0.169,0.102,-,CALM,No
2018/03/05,03:20,0.331,0.205,0.336,0.320,0.303,0.169,0.103,north-northeast,1.2,No
2018/03/05,03:30,0.331,0.206,0.336,0.319,0.304,0.168,0.101,north,2.3,No
2018/03/05,03:40,0.332,0.206,0.334,0.319,0.304,0.168,0.101,north,3.5,No
2018/03/05,03:50,0.330,0.205,0.335,0.319,0.303,0.169,0.101,north-northwest,5.0,No
2018/03/05,04:00,0.331,0.205,0.336,0.321,0.304,0.168,0.101,north-northwest,6.6,No
2018/03/05,04:10,0.330,0.205,0.333,0.320,0.303,0.169,0.101,north,7.3,No
2018/03/05,04:20,0.330,0.205,0.334,0.321,0.303,0.169,0.102,north,9.0,No
2018/03/05,04:30,0.329,0.205,0.336,0.320,0.303,0.169,0.102,north-northwest,8.6,No
2018/03/05,04:40,0.331,0.205,0.333,0.318,0.303,0.169,0.100,north,7.3,No
2018/03/05,04:50,0.330,0.205,0.335,0.319,0.304,0.169,0.100,north,6.6,No
2018/03/05,05:00,0.329,0.205,0.335,0.318,0.304,0.168,0.100,north,6.2,No
2018/03/05,05:10,0.332,0.205,0.333,0.319,0.304,0.168,0.101,north,5.9,No
2018/03/05,05:20,0.331,0.205,0.334,0.320,0.303,0.168,0.102,north,2.8,No
2018/03/05,05:30,0.330,0.206,0.336,0.319,0.305,0.168,0.100,north,5.4,No
2018/03/05,05:40,0.331,0.205,0.335,0.320,0.303,0.168,0.100,north,4.2,No
2018/03/05,05:50,0.332,0.205,0.334,0.320,0.304,0.169,0.101,north,3.9,No
2018/03/05,06:00,0.329,0.204,0.336,0.320,0.304,0.168,0.100,north,5.8,No
2018/03/05,06:10,0.332,0.206,0.336,0.320,0.304,0.168,0.102,north,5.4,No
2018/03/05,06:20,0.331,0.206,0.335,0.321,0.304,0.169,0.101,north,4.4,No
2018/03/05,06:30,0.330,0.205,0.336,0.319,0.303,0.168,0.101,north,4.5,No
2018/03/05,06:40,0.330,0.207,0.336,0.317,0.303,0.168,0.101,north,5.2,No
2018/03/05,06:50,0.330,0.205,0.334,0.319,0.305,0.169,0.101,north,7.1,No
2018/03/05,07:00,0.330,0.205,0.337,0.320,0.303,0.168,0.101,north,3.8,No
2018/03/05,07:10,0.332,0.205,0.335,0.319,0.304,0.169,0.102,north,3.4,No
2018/03/05,07:20,0.332,0.205,0.335,0.320,0.306,0.169,0.101,north,5.4,No
2018/03/05,07:30,0.329,0.205,0.336,0.319,0.303,0.168,0.101,north,3.5,No
2018/03/05,07:40,0.332,0.206,0.335,0.319,0.305,0.169,0.101,north,3.9,No
2018/03/05,07:50,0.328,0.205,0.333,0.320,0.304,0.168,0.100,north,5.7,No
2018/03/05,08:00,0.330,0.205,0.334,0.319,0.303,0.168,0.101,north,5.5,No
2018/03/05,08:10,0.329,0.206,0.334,0.318,0.305,0.169,0.101,north-northwest,3.8,No
2018/03/05,08:20,0.329,0.205,0.335,0.319,0.304,0.168,0.101,north,5.4,No
2018/03/05,08:30,0.332,0.205,0.336,0.319,0.304,0.168,0.101,north,5.0,No
2018/03/05,08:40,0.330,0.205,0.333,0.320,0.305,0.168,0.101,north-northwest,3.3,No
2018/03/05,08:50,0.330,0.205,0.336,0.318,0.304,0.169,0.100,northwest,2.7,No
2018/03/05,09:00,0.331,0.205,0.336,0.319,0.305,0.169,0.101,north-northwest,2.0,No
2018/03/05,09:10,0.329,0.205,0.335,0.319,0.304,0.170,0.101,north,3.5,No
2018/03/05,09:20,0.330,0.205,0.336,0.318,0.304,0.169,0.101,north,2.2,No
2018/03/05,09:30,0.331,0.205,0.335,0.319,0.305,0.167,0.101,north,2.4,No
2018/03/05,09:40,0.330,0.205,0.337,0.321,0.303,0.168,0.100,north-northeast,1.1,No
2018/03/05,09:50,0.331,0.206,0.335,0.318,0.306,0.167,0.100,north,2.8,No
2018/03/05,10:00,0.329,0.205,0.334,0.318,0.303,0.168,0.101,north,3.8,No
2018/03/05,10:10,0.328,0.205,0.337,0.317,0.303,0.168,0.100,north-northeast,1.1,No
2018/03/05,10:20,0.330,0.206,0.335,0.318,0.305,0.169,0.101,north,1.9,No
2018/03/05,10:30,0.328,0.205,0.334,0.319,0.302,0.168,0.100,north,1.3,No
2018/03/05,10:40,0.329,0.205,0.337,0.318,0.305,0.169,0.100,north-northeast,1.6,No
2018/03/05,10:50,0.331,0.206,0.335,0.319,0.304,0.169,0.101,north-northwest,0.7,No
2018/03/05,11:00,0.328,0.204,0.335,0.318,0.304,0.168,0.100,north,2.5,No
2018/03/05,11:10,0.330,0.205,0.335,0.318,0.306,0.169,0.101,north-northwest,3.2,No
2018/03/05,11:20,0.330,0.205,0.334,0.319,0.303,0.168,0.101,north,1.5,No
2018/03/05,11:30,0.331,0.205,0.337,0.318,0.303,0.168,0.101,north-northeast,4.0,Yes
2018/03/05,11:40,0.331,0.205,0.336,0.320,0.305,0.169,0.101,north,7.0,Yes
2018/03/05,11:50,0.331,0.206,0.334,0.319,0.303,0.167,0.100,north,10.3,Yes
2018/03/05,12:00,0.331,0.205,0.336,0.318,0.306,0.169,0.101,north,8.3,Yes
2018/03/05,12:10,0.332,0.207,0.337,0.320,0.307,0.169,0.103,north-northwest,5.9,Yes
2018/03/05,12:20,0.333,0.207,0.337,0.321,0.305,0.171,0.103,north,9.0,Yes
2018/03/05,12:30,0.332,0.208,0.337,0.320,0.306,0.171,0.102,north,7.2,Yes
2018/03/05,12:40,0.332,0.208,0.339,0.322,0.307,0.171,0.103,north,6.9,Yes
2018/03/05,12:50,0.334,0.209,0.337,0.321,0.305,0.171,0.103,north,8.8,Yes
2018/03/05,13:00,0.332,0.209,0.337,0.320,0.306,0.171,0.104,north,7.9,Yes
2018/03/05,13:10,0.333,0.209,0.338,0.321,0.308,0.172,0.104,north-northwest,8.5,Yes
2018/03/05,13:20,0.334,0.209,0.337,0.322,0.306,0.171,0.104,north,10.1,Yes
2018/03/05,13:30,0.333,0.208,0.336,0.320,0.305,0.170,0.103,north,8.8,Yes
2018/03/05,13:40,0.332,0.207,0.337,0.319,0.305,0.170,0.103,north-northwest,8.9,Yes
2018/03/05,13:50,0.331,0.208,0.337,0.319,0.305,0.171,0.102,north,8.6,Yes
2018/03/05,14:00,0.332,0.208,0.337,0.319,0.305,0.170,0.103,north,9.5,Yes
2018/03/05,14:10,0.331,0.208,0.335,0.319,0.304,0.171,0.104,north-northwest,8.8,Yes
2018/03/05,14:20,0.332,0.208,0.337,0.319,0.306,0.171,0.105,north-northwest,10.0,Yes
2018/03/05,14:30,0.331,0.208,0.337,0.320,0.305,0.173,0.105,north,9.3,Yes
2018/03/05,14:40,0.332,0.210,0.337,0.320,0.306,0.174,0.106,-,CALM,Yes
2018/03/05,14:50,0.332,0.210,0.335,0.319,0.306,0.173,0.106,-,CALM,Yes
2018/03/05,15:00,0.331,0.209,0.334,0.318,0.307,0.173,0.106,north,9.3,Yes
2018/03/05,15:10,0.331,0.210,0.333,0.319,0.306,0.172,0.106,north,9.6,Yes
2018/03/05,15:20,0.330,0.210,0.335,0.317,0.306,0.173,0.106,-,CALM,Yes
2018/03/05,15:30,0.330,0.210,0.332,0.315,0.305,0.173,0.106,-,CALM,Yes
2018/03/05,15:40,0.330,0.209,0.330,0.318,0.306,0.174,0.107,-,CALM,Yes
2018/03/05,15:50,0.328,0.210,0.334,0.316,0.304,0.174,0.108,-,CALM,Yes
2018/03/05,16:00,0.329,0.209,0.331,0.315,0.304,0.174,0.108,-,CALM,Yes
2018/03/05,16:10,0.328,0.210,0.331,0.313,0.306,0.174,0.108,-,CALM,Yes
2018/03/05,16:20,0.329,0.210,0.330,0.315,0.305,0.175,0.109,-,CALM,Yes
2018/03/05,16:30,0.330,0.210,0.330,0.314,0.305,0.174,0.110,-,CALM,Yes
2018/03/05,16:40,0.331,0.211,0.330,0.314,0.305,0.173,0.110,-,CALM,Yes
2018/03/05,16:50,0.329,0.211,0.329,0.313,0.307,0.174,0.109,-,CALM,Yes
2018/03/05,17:00,0.328,0.210,0.330,0.312,0.305,0.175,0.109,-,CALM,Yes
2018/03/05,17:10,0.329,0.210,0.329,0.314,0.306,0.173,0.109,-,CALM,Yes
2018/03/05,17:20,0.329,0.210,0.329,0.312,0.305,0.173,0.108,-,CALM,Yes
2018/03/05,17:30,0.328,0.210,0.329,0.311,0.306,0.172,0.108,-,CALM,Yes
2018/03/05,17:40,0.328,0.209,0.328,0.311,0.305,0.171,0.108,-,CALM,Yes
2018/03/05,17:50,0.326,0.208,0.327,0.312,0.304,0.170,0.107,-,CALM,Yes
2018/03/05,18:00,0.327,0.208,0.326,0.311,0.305,0.171,0.107,-,CALM,Yes
2018/03/05,18:10,0.326,0.209,0.326,0.309,0.305,0.171,0.108,-,CALM,Yes
2018/03/05,18:20,0.326,0.209,0.325,0.309,0.305,0.172,0.109,-,CALM,Yes
2018/03/05,18:30,0.326,0.208,0.325,0.310,0.304,0.172,0.109,-,CALM,Yes
2018/03/05,18:40,0.327,0.208,0.326,0.309,0.305,0.172,0.109,-,CALM,Yes
2018/03/05,18:50,0.327,0.207,0.327,0.309,0.303,0.171,0.107,-,CALM,Yes
2018/03/05,19:00,0.326,0.208,0.326,0.310,0.303,0.170,0.107,-,CALM,Yes
2018/03/05,19:10,0.324,0.207,0.325,0.309,0.305,0.169,0.107,-,CALM,Yes
2018/03/05,19:20,0.325,0.207,0.325,0.310,0.303,0.170,0.107,-,CALM,Yes
2018/03/05,19:30,0.326,0.207,0.326,0.310,0.305,0.170,0.107,-,CALM,Yes
2018/03/05,19:40,0.325,0.207,0.325,0.310,0.304,0.170,0.107,-,CALM,Yes
2018/03/05,19:50,0.326,0.207,0.325,0.310,0.304,0.170,0.108,-,CALM,Yes
2018/03/05,20:00,0.326,0.208,0.325,0.312,0.304,0.171,0.108,-,CALM,Yes
2018/03/05,20:10,0.326,0.207,0.325,0.310,0.304,0.170,0.109,-,CALM,Yes
2018/03/05,20:20,0.325,0.208,0.325,0.309,0.305,0.171,0.108,-,CALM,Yes
2018/03/05,20:30,0.327,0.208,0.326,0.309,0.306,0.172,0.109,-,CALM,Yes
2018/03/05,20:40,0.326,0.209,0.324,0.311,0.305,0.172,0.111,-,CALM,Yes
2018/03/05,20:50,0.326,0.209,0.325,0.309,0.305,0.171,0.110,-,CALM,Yes
2018/03/05,21:00,0.326,0.209,0.324,0.309,0.305,0.171,0.109,-,CALM,Yes
2018/03/05,21:10,0.326,0.208,0.324,0.309,0.304,0.171,0.109,-,CALM,Yes
2018/03/05,21:20,0.326,0.211,0.326,0.309,0.305,0.171,0.109,-,CALM,Yes
2018/03/05,21:30,0.326,0.211,0.325,0.310,0.306,0.173,0.111,-,CALM,Yes
2018/03/05,21:40,0.327,0.211,0.325,0.310,0.306,0.171,0.110,-,CALM,Yes
2018/03/05,21:50,0.327,0.210,0.326,0.310,0.306,0.172,0.111,north,8.6,Yes
2018/03/05,22:00,0.326,0.210,0.327,0.310,0.305,0.171,0.110,north,9.5,Yes
2018/03/05,22:10,0.324,0.210,0.326,0.310,0.306,0.172,0.111,north,10.4,Yes
2018/03/05,22:20,0.325,0.210,0.325,0.310,0.305,0.172,0.110,-,CALM,Yes
2018/03/05,22:30,0.324,0.210,0.325,0.310,0.305,0.172,0.109,-,CALM,Yes
2018/03/05,22:40,0.322,0.210,0.324,0.308,0.306,0.172,0.110,north,10.0,Yes
2018/03/05,22:50,0.323,0.208,0.325,0.310,0.306,0.171,0.109,north,9.0,Yes
2018/03/05,23:00,0.325,0.208,0.327,0.310,0.305,0.171,0.109,north,11.7,Yes
2018/03/05,23:10,0.323,0.209,0.327,0.310,0.306,0.171,0.110,north,10.9,Yes
2018/03/05,23:20,0.322,0.209,0.325,0.310,0.307,0.171,0.109,-,CALM,Yes
2018/03/05,23:30,0.322,0.209,0.326,0.309,0.306,0.172,0.110,-,CALM,Yes
2018/03/05,23:40,0.324,0.208,0.326,0.310,0.305,0.171,0.109,north,10.9,Yes
2018/03/05,23:50,0.324,0.207,0.326,0.310,0.305,0.171,0.109,north-northeast,9.8,Yes
